Weather in Olsufyevo

Russia / Bryansk Oblast     53°35′52″N   33°40′03″E
temp.,
°C
wind,
m/s
gust,
m/s
humid.,
%
clouds,
%
prec.,
mm/h
press.,
hPa
HPBL,
m
18 april, sun
sun1800:00+7se1295100 0.4 1016217
03:00+6sse3596100 1.8 1016363
06:00+5sse2394100 1.4 1016514
09:00+6se2487100 1.4 1018627
12:00+9e2269100 0.1 10181034
15:00+9nne2369100 0.2 1019865
18:00+8nne578284 0.3 1018651
21:00+7ne3789100 0.6 1020577
19 april, mon
mon1900:00+6nne379251 0.1 1020372
03:00+5nne379393 0.1 1020322
06:00+6nne3893100 0.0 1020436
09:00+6nne4891100 0.1 1020570
12:00+8ne4784100 0.1 1020819
15:00+7ne4784100 0.1 10211022
18:00+5ne5789100 0.1 1021900
21:00+4ne4996100 0.1 1021730
20 april, tue
tue2000:00+4ne4790100 0.1 1020771
03:00+3ne4690100 0.1 1019814
06:00+2ne3797100 0.1 1017450
09:00+2ne2599100 0.3 1016372
12:00+3nne2497100 0.1 1015291
15:00+7ne467895 0.1 1012729
18:00+7ne4993100 0.8 1009603
21:00+6nne51095100 2.6 1006849
21 april, wed
wed2100:00+3n51297100 2.9 1002689
03:00+3nnw61197100 3.6 999584
06:00+2wnw51197100 0.9 999474
09:00+2w61296100 1.0 1002564
12:00+3w51296100 0.1 1005794
15:00+5wsw51186100 0.1 10081213
18:00+6wsw51077100 0.1 1011893
21:00+5sw3886100 0.1 1013295
22 april, thu
thu2200:00+5ssw3984100 0.1 1014247
03:00+3ssw3109091 0.1 1016192
06:00+4s289667 0.6 1016217
09:00+8ssw368195 0.9 1017430
12:00+12ssw466420 0.4 10181216
15:00+14sw455630 1.6 10171488
18:00+14s246150 0.4 1018363
21:00+9s22785 0.4 101938